Jefferson, NC

5:57 AM EST on December 10, 2019 (GMT -0500)
Ashe County

Weather History for KGEV - November, 2019

Change the Weather History Date:

Tuesday, November 19, 2019

  Actual Average Record
Temperature  
Mean Temperature 38 °F -  
Max Temperature 47 °F 54 °F 66 °F (1985)
Min Temperature 30 °F 29 °F 15 °F (2014)
Degree Days  
Heating Degree Days 26    
Moisture  
Dew Point 29 °F    
Average Humidity 72    
Maximum Humidity 99    
Minimum Humidity 38    
Precipitation  
Precipitation 0.00 in - - ()
Sea Level Pressure  
Sea Level Pressure 29.81 in    
Wind  
Wind Speed 3 mph ()    
Max Wind Speed 9 mph    
Max Gust Speed 17 mph    
Visibility 9.6 miles    
Events Fog    
Averages and records for this station are not official NWS values.
T = Trace of Precipitation, MM = Missing Value Source: Averaged Metar Reports

Daily Weather History Graph

Daily Weather History Graph

Search for Another Location

Airport or City:

Astronomy

Nov. 19, 2019 Rise Set
Actual Time 7:06 AM EST 5:14 PM EST
Civil Twilight 6:39 AM EST 5:42 PM EST
Nautical Twilight 6:07 AM EST 6:13 PM EST
Astronomical Twilight 5:37 AM EST 6:44 PM EST
Moon No Moon Rise 1:17 PM EST (11/19)
Length of Visible Light 11h 03m
Length of Day
10h 07m
Waning Gibbous, 52% of the Moon is Illuminated
Nov 19
Waning Gibbous
Nov 19
Last Quarter
Nov 26
New
Dec 4
First Quarter
Dec 12
Full

Hourly Weather History & Observations

Time (EST) Temp. Windchill Dew Point Humidity Pressure Visibility Wind Dir Wind Speed Gust Speed Precip Events Conditions
12:15 AM 33.8 °F 30.8 °F 31.8 °F 92% 29.76 in 10.0 mi WNW 3.5 mph - N/A   Clear
12:35 AM 32.0 °F - 31.8 °F 99% 29.76 in 10.0 mi Calm Calm - N/A   Clear
12:55 AM 33.6 °F 29.4 °F 32.0 °F 94% 29.76 in 10.0 mi NW 4.6 mph - N/A   Clear
1:15 AM 30.2 °F - 29.3 °F 96% 29.76 in 0.5 mi Calm Calm - N/A Fog Light Freezing Fog
1:35 AM 33.8 °F - 29.5 °F 84% 29.76 in 2.0 mi Calm Calm - N/A   Haze
1:55 AM 36.5 °F 33.9 °F 30.4 °F 78% 29.76 in 10.0 mi WSW 3.5 mph - N/A   Scattered Clouds
2:15 AM 30.2 °F 26.7 °F 30.0 °F 99% 29.75 in 3.0 mi NE 3.5 mph - N/A   Clear
2:35 AM 31.3 °F 26.6 °F 30.0 °F 95% 29.75 in 10.0 mi NNE 4.6 mph - N/A   Clear
2:55 AM 34.0 °F 29.8 °F 28.6 °F 81% 29.75 in 10.0 mi North 4.6 mph - N/A   Clear
3:15 AM 32.5 °F - 29.7 °F 89% 29.74 in 10.0 mi Calm Calm - N/A   Clear
3:35 AM 32.7 °F 29.6 °F 29.3 °F 87% 29.74 in 10.0 mi North 3.5 mph - N/A   Clear
3:55 AM 32.4 °F 26.9 °F 29.3 °F 88% 29.74 in 10.0 mi NNW 5.8 mph - N/A   Clear
4:15 AM 34.2 °F 31.2 °F 29.1 °F 82% 29.74 in 10.0 mi NW 3.5 mph - N/A   Clear
4:35 AM 33.8 °F - 29.8 °F 85% 29.76 in 10.0 mi Calm Calm - N/A   Clear
4:55 AM 31.1 °F - 29.3 °F 93% 29.77 in 10.0 mi Calm Calm - N/A   Clear
5:15 AM 35.4 °F 30.5 °F 30.7 °F 83% 29.76 in 10.0 mi WNW 5.8 mph - N/A   Scattered Clouds
5:35 AM 32.0 °F 28.7 °F 30.4 °F 94% 29.77 in 10.0 mi SSE 3.5 mph - N/A   Scattered Clouds
5:55 AM 33.6 °F - 30.2 °F 87% 29.77 in 10.0 mi Calm Calm - N/A   Mostly Cloudy
6:15 AM 33.8 °F - 30.2 °F 87% 29.77 in 10.0 mi Calm Calm - N/A   Mostly Cloudy
6:55 AM 32.4 °F - 30.7 °F 94% 29.79 in 10.0 mi Calm Calm - N/A   Overcast
7:15 AM 33.3 °F - 30.4 °F 89% 29.79 in 10.0 mi Calm Calm - N/A   Overcast
7:35 AM 32.9 °F 29.8 °F 31.1 °F 93% 29.80 in 10.0 mi WNW 3.5 mph - N/A   Overcast
7:55 AM 33.6 °F - 30.7 °F 89% 29.80 in 10.0 mi Calm Calm - N/A   Overcast
8:15 AM 34.7 °F - 32.4 °F 91% 29.80 in 10.0 mi Calm Calm - N/A   Overcast
8:35 AM 35.1 °F - 31.8 °F 88% 29.81 in 10.0 mi Calm Calm - N/A   Overcast
8:55 AM 35.4 °F - 32.0 °F 87% 29.81 in 10.0 mi Calm Calm - N/A   Scattered Clouds
9:15 AM 37.0 °F - 32.7 °F 84% 29.82 in 10.0 mi Calm Calm - N/A   Mostly Cloudy
9:35 AM 37.8 °F 33.3 °F 32.0 °F 80% 29.81 in 10.0 mi West 5.8 mph - N/A   Mostly Cloudy
9:55 AM 37.8 °F 33.3 °F 31.8 °F 79% 29.82 in 10.0 mi West 5.8 mph - N/A   Scattered Clouds
10:15 AM 39.4 °F 36.1 °F 32.0 °F 75% 29.82 in 10.0 mi West 4.6 mph - N/A   Mostly Cloudy
10:35 AM 40.5 °F 35.8 °F 32.0 °F 72% 29.82 in 10.0 mi West 6.9 mph - N/A   Overcast
10:55 AM 41.2 °F - 32.5 °F 71% 29.81 in 10.0 mi Calm Calm - N/A   Mostly Cloudy
11:15 AM 41.9 °F - 32.0 °F 68% 29.81 in 10.0 mi Calm Calm - N/A   Scattered Clouds
11:55 AM 43.3 °F 41.7 °F 32.2 °F 65% 29.80 in 10.0 mi ESE 3.5 mph - N/A   Scattered Clouds
12:15 PM 44.1 °F 42.5 °F 32.5 °F 64% 29.80 in 10.0 mi NNW 3.5 mph - N/A   Overcast
12:55 PM 44.6 °F - 32.0 °F 61% 29.79 in 10.0 mi Calm Calm - N/A   Overcast
1:15 PM 45.3 °F 40.6 °F 26.4 °F 48% 29.79 in 10.0 mi West 9.2 mph - N/A   Mostly Cloudy
1:35 PM 46.4 °F 44.3 °F 28.6 °F 50% 29.79 in 10.0 mi WSW 4.6 mph - N/A   Mostly Cloudy
1:55 PM 46.4 °F 42.4 °F 27.5 °F 48% 29.79 in 10.0 mi West 8.1 mph - N/A   Scattered Clouds
2:15 PM 47.3 °F - 22.8 °F 38% 29.79 in 10.0 mi West 8.1 mph - N/A   Clear
2:35 PM 47.3 °F - 24.3 °F 40% 29.79 in 10.0 mi WNW 9.2 mph - N/A   Clear
2:55 PM 46.8 °F - 24.4 °F 42% 29.79 in 10.0 mi West 8.1 mph - N/A   Clear
3:15 PM 47.3 °F - 25.5 °F 43% 29.79 in 10.0 mi WNW 5.8 mph - N/A   Clear
3:35 PM 47.3 °F - 25.7 °F 43% 29.79 in 10.0 mi West 8.1 mph - N/A   Clear
3:55 PM 45.7 °F 41.5 °F 24.8 °F 44% 29.79 in 10.0 mi West 8.1 mph - N/A   Scattered Clouds
4:15 PM 45.1 °F 41.4 °F 24.8 °F 45% 29.80 in 10.0 mi West 6.9 mph - N/A   Overcast
4:55 PM 44.4 °F 40.5 °F 25.0 °F 46% 29.81 in 10.0 mi West 6.9 mph - N/A   Overcast
5:35 PM 43.7 °F 40.3 °F 27.1 °F 52% 29.83 in 10.0 mi West 5.8 mph - N/A   Overcast
5:55 PM 43.3 °F 39.9 °F 26.4 °F 51% 29.84 in 10.0 mi West 5.8 mph - N/A   Overcast
6:15 PM 43.0 °F 40.3 °F 26.6 °F 52% 29.85 in 10.0 mi WNW 4.6 mph - N/A   Overcast
6:35 PM 42.8 °F 38.6 °F 26.6 °F 53% 29.85 in 10.0 mi West 6.9 mph - N/A   Overcast
7:15 PM 42.1 °F 36.6 °F 26.4 °F 54% 29.86 in 10.0 mi West 9.2 mph - N/A   Overcast
7:35 PM 41.9 °F 38.2 °F 26.4 °F 54% 29.86 in 10.0 mi West 5.8 mph - N/A   Overcast
8:15 PM 41.5 °F 37.1 °F 27.5 °F 57% 29.88 in 10.0 mi West 6.9 mph - N/A   Overcast
8:35 PM 41.2 °F 36.0 °F 28.0 °F 60% 29.89 in 10.0 mi West 8.1 mph 17.3 mph N/A   Overcast
9:15 PM 40.5 °F 35.8 °F 28.4 °F 62% 29.89 in 10.0 mi West 6.9 mph - N/A   Overcast
9:35 PM 39.6 °F 37.4 °F 29.3 °F 67% 29.88 in 10.0 mi SW 3.5 mph - N/A   Overcast
9:55 PM 38.7 °F 33.6 °F 30.4 °F 72% 29.89 in 10.0 mi West 6.9 mph - N/A   Overcast
10:15 PM 38.7 °F 33.6 °F 31.1 °F 74% 29.89 in 10.0 mi West 6.9 mph - N/A   Overcast
10:35 PM 38.3 °F 33.2 °F 32.0 °F 78% 29.89 in 10.0 mi West 6.9 mph - N/A   Overcast
10:55 PM 38.1 °F - 32.0 °F 79% 29.89 in 10.0 mi Calm Calm - N/A   Overcast
11:15 PM 37.9 °F 34.4 °F 32.0 °F 79% 29.89 in 10.0 mi NW 4.6 mph - N/A   Overcast
11:35 PM 37.6 °F 33.1 °F 32.0 °F 80% 29.89 in 10.0 mi NW 5.8 mph - N/A   Overcast
11:55 PM 37.4 °F 32.8 °F 32.0 °F 81% 29.89 in 10.0 mi NW 5.8 mph - N/A   Overcast